This demonstration page uses our WeatherBlox Daily Observations layout. Learn more.

Hourly Observations for August 5, 2020

Temp ( °F °C ) Dew Point ( °F °C ) Humidity (%) Winds ( mph kmh ) Pressure ( in mb ) Visibility ( mi km ) Precip ( " mm )
12:15 am 00:15 Clear 62 16.4 59 14.8 90 90 S 5 7 29.98 1015 10 16.0934 0 0
12:35 am 00:35 Clear 61 16 58 14.7 92 92 S 7 11 29.99 1015 10 16.0934 0 0
12:55 am 00:55 Clear 61 16.2 58 14.7 91 91 SSE 7 11 30 1016 10 16.0934 0 0
1:15 am 01:15 Clear 62 16.7 58 14.5 87 87 SSE 7 11 30 1016 10 16.0934 0 0
1:35 am 01:35 Clear 62 16.4 58 14.5 89 89 SSE 7 11 30 1016 10 16.0934 0 0
1:55 am 01:55 Clear 61 16 58 14.3 90 90 SSE 7 11 30.01 1016 10 16.0934 0 0
2:15 am 02:15 Clear 60 15.7 58 14.2 91 91 SSE 6 9 30 1016 10 16.0934 0 0
2:35 am 02:35 Clear 60 15.7 57 14.1 90 90 S 9 15 29.99 1016 10 16.0934 0 0
2:55 am 02:55 Clear 61 15.9 57 14.1 89 89 S 6 9 29.99 1015 10 16.0934 0 0
3:15 am 03:15 Clear 60 15.6 57 14.1 91 91 SSE 6 9 29.99 1016 10 16.0934 0 0
3:35 am 03:35 Clear 59 15.2 57 14 93 93 SSE 3 6 29.99 1016 10 16.0934 0 0
3:55 am 03:55 Clear 60 15.5 57 14 91 91 Calm 29.99 1016 10 16.0934 0 0
4:15 am 04:15 Clear 60 15.3 57 14 92 92 SSE 5 7 29.99 1016 10 16.0934 0 0
4:35 am 04:35 Clear 59 15.1 57 14 93 93 SSE 7 11 29.99 1016 10 16.0934 0 0
4:55 am 04:55 Clear 59 14.9 57 13.8 93 93 SSE 6 9 30 1016 10 16.0934 0 0
5:15 am 05:15 Clear 59 15.1 57 14 93 93 SE 7 11 29.98 1015 10 16.0934 0 0
5:35 am 05:35 Clear 60 15.3 57 14 92 92 SE 7 11 29.98 1015 10 16.0934 0 0
5:55 am 05:55 Clear 59 15 57 13.7 92 92 SSE 8 13 29.99 1015 10 16.0934 0 0
6:15 am 06:15 Clear 58 14.7 56 13.6 93 93 SSE 6 9 30 1016 10 16.0934 0 0
6:35 am 06:35 Clear 58 14.5 56 13.5 94 94 S 5 7 30.01 1016 10 16.0934 0 0
6:55 am 06:55 Sunny 57 14 56 13.2 95 95 Calm 30.01 1016 10 16.0934 0 0
7:15 am 07:15 Sunny 58 14.3 56 13.5 95 95 SSE 5 7 30.01 1016 10 16.0934 0 0
7:35 am 07:35 Sunny 59 15.1 56 13.6 91 91 SSE 5 7 30 1016 10 16.0934 0 0
7:55 am 07:55 Sunny 60 15.8 57 13.9 89 89 SSE 7 11 29.99 1016 10 16.0934 0 0
8:15 am 08:15 Sunny 62 16.4 58 14.3 87 87 S 8 13 29.99 1016 10 16.0934 0 0
8:35 am 08:35 Sunny 63 17.1 58 14.5 85 85 S 10 17 29.99 1015 10 16.0934 0 0
8:55 am 08:55 Sunny 64 18 58 14.7 81 81 S 12 19 29.98 1015 10 16.0934 0 0
9:15 am 09:15 Sunny 65 18.5 59 15.1 81 81 S 9 15 29.97 1015 10 16.0934 0 0
9:35 am 09:35 Sunny 66 19.1 60 15.6 80 80 S 9 15 29.97 1015 10 16.0934 0 0
9:55 am 09:55 Sunny 68 19.8 61 16.1 79 79 SSW 9 15 29.96 1015 10 16.0934 0 0
10:15 am 10:15 Partly Cloudy 68 20 61 16.2 79 79 SW 16 26 29.96 1015 10 16.0934 0 0
10:35 am 10:35 Partly Cloudy 69 20.8 62 16.9 78 78 SSW 10 17 29.96 1014 10 16.0934 0 0
10:55 am 10:55 Sunny 70 20.9 62 16.8 78 78 SSW 9 15 29.94 1014 10 16.0934 0 0
11:15 am 11:15 Partly Cloudy 70 21.2 62 16.9 77 77 SW 9 15 29.94 1014 10 16.0934 0 0
11:35 am 11:35 Mostly Cloudy 71 21.8 63 17.4 76 76 WSW 5 7 29.94 1014 10 16.0934 0 0
11:55 am 11:55 Partly Cloudy 73 22.7 65 18.1 75 75 SSW 5 7 29.93 1014 10 16.0934 0 0
12:15 pm 12:15 Sunny 74 23.1 64 18 73 73 Calm 29.92 1013 10 16.0934 0 0
12:35 pm 12:35 Sunny 74 23.6 64 18 71 71 Calm 29.9 1013 10 16.0934 0 0
12:55 pm 12:55 Partly Cloudy 76 24.7 66 18.9 70 70 Calm 29.89 1012 10 16.0934 0 0
1:15 pm 13:15 Sunny 77 24.9 66 18.8 69 69 ESE 3 6 29.89 1012 10 16.0934 0 0
1:35 pm 13:35 Sunny 79 25.9 66 19.1 66 66 SE 5 7 29.87 1012 10 16.0934 0 0
1:55 pm 13:55 Sunny 79 26.1 66 19.1 65 65 S 7 11 29.87 1012 10 16.0934 0 0
2:15 pm 14:15 Sunny 80 26.8 67 19.5 64 64 S 7 11 29.86 1011 10 16.0934 0 0
2:35 pm 14:35 Sunny 80 26.9 68 19.8 65 65 S 8 13 29.84 1011 10 16.0934 0 0
2:55 pm 14:55 Sunny 80 26.9 67 19.5 64 64 S 8 13 29.84 1011 10 16.0934 0 0
3:15 pm 15:15 Sunny 81 27.2 67 19.3 62 62 S 7 11 29.84 1011 10 16.0934 0 0
3:35 pm 15:35 Sunny 81 27.4 67 19.6 62 62 SSE 7 11 29.84 1011 10 16.0934 0 0
3:55 pm 15:55 Sunny 82 27.5 67 19.3 61 61 SSE 7 11 29.83 1010 10 16.0934 0 0
4:15 pm 16:15 Sunny 82 27.7 68 19.9 63 63 SSE 10 17 29.82 1010 10 16.0934 0 0
4:35 pm 16:35 Sunny 82 27.7 67 19.6 61 61 SSE 5 7 29.82 1010 10 16.0934 0 0
4:55 pm 16:55 Sunny 82 27.8 68 20 63 63 S 10 17 29.82 1010 10 16.0934 0 0
5:15 pm 17:15 Sunny 82 27.8 68 19.9 62 62 S 10 17 29.81 1009 10 16.0934 0 0
5:35 pm 17:35 Sunny 83 28.1 68 20.2 62 62 SSE 7 11 29.8 1009 10 16.0934 0 0
5:55 pm 17:55 Sunny 82 27.6 68 19.8 63 63 SSE 8 13 29.81 1009 10 16.0934 0 0
6:15 pm 18:15 Sunny 82 27.6 67 19.7 62 62 SSE 7 11 29.81 1009 10 16.0934 0 0
6:35 pm 18:35 Sunny 82 27.6 68 19.9 63 63 SE 8 13 29.81 1009 10 16.0934 0 0
6:55 pm 18:55 Sunny 81 27.3 67 19.5 62 62 SSE 9 15 29.81 1010 10 16.0934 0 0
7:15 pm 19:15 Sunny 81 27.2 67 19.7 64 64 SE 7 11 29.8 1009 10 16.0934 0 0
7:35 pm 19:35 Sunny 80 26.5 67 19.5 65 65 ESE 9 15 29.81 1009 10 16.0934 0 0
7:55 pm 19:55 Sunny 79 26 67 19.5 67 67 SE 8 13 29.82 1010 10 16.0934 0 0
8:15 pm 20:15 Sunny 78 25.7 67 19.5 69 69 ESE 7 11 29.82 1010 10 16.0934 0 0
8:35 pm 20:35 Sunny 77 25 68 20 74 74 ESE 7 11 29.83 1010 10 16.0934 0 0
8:55 pm 20:55 Clear 76 24.5 68 20.1 77 77 ESE 6 9 29.84 1011 10 16.0934 0 0
9:15 pm 21:15 Clear 75 23.9 68 20.2 80 80 ESE 7 11 29.85 1011 10 16.0934 0 0
9:35 pm 21:35 Clear 75 23.9 68 20 79 79 E 7 11 29.85 1011 10 16.0934 0 0
9:55 pm 21:55 Clear 73 23 68 20 83 83 E 6 9 29.86 1011 10 16.0934 0 0
10:15 pm 22:15 Partly Cloudy 74 23.1 68 19.8 82 82 ESE 7 11 29.88 1012 10 16.0934 0 0
10:35 pm 22:35 Mostly Cloudy 73 23 67 19.7 82 82 ESE 7 11 29.88 1012 10 16.0934 0 0
10:55 pm 22:55 Mostly Cloudy 74 23.1 67 19.7 81 81 E 9 15 29.86 1011 10 16.0934 0 0
11:15 pm 23:15 Partly Cloudy 73 22.5 67 19.6 84 84 E 10 17 29.86 1011 10 16.0934 0 0
11:30 pm 23:30 Partly Cloudy 73 22.6 67 19.6 83 83 ESE 12 19 29.86 1011 10 16.0934 0 0
11:55 pm 23:55 Cloudy 73 22.5 67 19.5 83 83 ESE 13 20 29.85 1011 10 16.0934 0 0

Powered by AerisWeather